EW3156 Weather Reports


Display with metric or nautical units.
time (UTC)temp
F
wind
direction
speed
MPH
gust
MPH
rain 1hr
in
rain 24hr
in
rain mn
in
humidity
%
barometer
mb
20260904234507 91 98 0.0 0.0 0.00 0.00 0.00 62 1012.7
20260904233004 92 98 0.0 1.0 0.00 0.00 0.00 61 1012.6
20260904231508 93 97 0.0 2.0 0.00 0.00 0.00 59 1012.5
20260904230105 94 98 0.0 2.0 0.00 0.00 0.00 58 1012.2
20260904224503 94 98 1.0 3.0 0.00 0.00 0.00 56 1012.2
20260904223004 94 93 0.0 4.0 0.00 0.00 0.00 55 1012.0
20260904221505 95 80 2.0 6.0 0.00 0.00 0.00 56 1012.0
20260904220001 95 107 1.0 3.0 0.00 0.00 0.00 56 1012.0
20260904214600 95 112 2.0 4.0 0.00 0.00 0.00 55 1012.0
20260904213059 95 68 1.0 8.0 0.00 0.00 0.00 55 1012.0
20260904211601 96 137 1.0 4.0 0.00 0.00 0.00 55 1012.1
20260904210107 96 97 2.0 6.0 0.00 0.00 0.00 53 1012.1
20260904204557 96 57 3.0 10.0 0.00 0.00 0.00 54 1012.2
20260904203055 96 78 1.0 8.0 0.00 0.00 0.00 55 1012.3
20260904201554 96 63 3.0 7.0 0.00 0.00 0.00 53 1012.7
20260904200051 97 84 1.0 9.0 0.00 0.00 0.00 53 1012.9
20260904194555 97 116 0.0 3.0 0.00 0.00 0.00 54 1013.0
20260904193044 96 84 1.0 6.0 0.00 0.00 0.00 55 1013.3
20260904191544 94 90 2.0 6.0 0.00 0.00 0.00 58 1013.7
20260904190040 96 80 1.0 5.0 0.00 0.00 0.00 55 1013.8
20260904184536 94 86 2.0 8.0 0.00 0.00 0.00 58 1014.1
20260904183039 94 142 1.0 4.0 0.00 0.00 0.00 60 1014.3
20260904181535 94 128 1.0 8.0 0.00 0.00 0.00 59 1014.5
20260904180036 94 109 2.0 9.0 0.00 0.00 0.00 60 1014.8
20260904174557 93 267 1.0 4.0 0.00 0.00 0.00 63 1015.0
20260904173133 93 98 0.0 4.0 0.00 0.00 0.00 62 1015.1
20260904171533 94 130 2.0 6.0 0.00 0.00 0.00 60 1015.4
20260904170029 94 72 1.0 5.0 0.00 0.00 0.00 59 1015.4
20260904164525 93 277 1.0 6.0 0.00 0.00 0.00 62 1015.4
20260904163020 92 87 1.0 6.0 0.00 0.00 0.00 64 1015.8
20260904161519 91 93 1.0 7.0 0.00 0.00 0.00 65 1015.8
20260904160016 92 319 1.0 6.0 0.00 0.00 0.00 66 1016.0
20260904154511 90 83 1.0 4.0 0.00 0.00 0.00 66 1016.1
20260904153010 90 188 0.0 3.0 0.00 0.00 0.00 68 1015.9
20260904151508 90 101 0.0 3.0 0.00 0.00 0.00 68 1015.8
20260904150010 89 102 0.0 2.0 0.00 0.00 0.00 70 1015.8
20260904144600 88 119 0.0 2.0 0.00 0.00 0.00 72 1015.6
20260904143101 86 94 0.0 1.0 0.00 0.00 0.00 76 1015.5
20260904141554 85 94 0.0 2.0 0.00 0.00 0.00 80 1015.6
20260904140051 83 94 0.0 2.0 0.00 0.00 0.00 82 1015.6
20260904134547 81 94 0.0 3.0 0.00 0.00 0.00 86 1015.6
20260904133040 79 150 0.0 0.0 0.00 0.00 0.00 91 1015.6
20260904131537 78 150 0.0 0.0 0.00 0.00 0.00 95 1015.5
20260904130036 77 150 0.0 0.0 0.00 0.00 0.00 96 1015.5
20260904124537 77 150 0.0 0.0 0.00 0.00 0.00 97 1015.3
20260904123041 76 150 0.0 0.0 0.00 0.00 0.00 99 1015.2
20260904121530 74 150 0.0 0.0 0.00 0.00 0.00 99 1015.0
20260904120027 74 150 0.0 0.0 0.00 0.00 0.00 99 1014.9
20260904114523 74 150 0.0 0.0 0.00 0.00 0.00 98 1014.8
20260904113021 74 150 0.0 0.0 0.00 0.00 0.00 98 1014.7
20260904111519 74 150 0.0 0.0 0.00 0.00 0.00 98 1014.5
20260904110033 74 150 0.0 0.0 0.00 0.00 0.00 98 1014.4
20260904104517 75 150 0.0 0.0 0.00 0.00 0.00 98 1014.3
20260904103017 75 150 0.0 0.0 0.00 0.00 0.00 97 1014.4
20260904101516 75 150 0.0 0.0 0.00 0.00 0.00 98 1014.3
20260904100013 75 150 0.0 0.0 0.00 0.00 0.00 97 1014.1
20260904094513 75 150 0.0 0.0 0.00 0.00 0.00 97 1014.0
20260904093010 75 150 0.0 0.0 0.00 0.00 0.00 97 1014.0
20260904091513 76 150 0.0 0.0 0.00 0.00 0.00 97 1014.0
20260904090008 76 150 0.0 0.0 0.00 0.00 0.00 96 1014.0
20260904084507 76 150 0.0 0.0 0.00 0.00 0.00 96 1014.0
20260904083006 76 150 0.0 0.0 0.00 0.00 0.00 96 1014.0
20260904081505 76 150 0.0 0.0 0.00 0.00 0.00 96 1014.1
20260904080004 76 150 0.0 0.0 0.00 0.00 0.00 95 1014.1
20260904074505 77 150 0.0 0.0 0.00 0.00 0.00 95 1014.1
20260904073002 77 150 0.0 0.0 0.00 0.00 0.00 94 1014.1
20260904071600 77 150 0.0 0.0 0.00 0.00 0.00 94 1014.1
20260904070100 77 150 0.0 0.0 0.00 0.00 0.00 94 1014.0
20260904064657 77 150 0.0 0.0 0.00 0.00 0.00 94 1014.0
20260904063056 78 150 0.0 0.0 0.00 0.00 0.00 93 1014.1
20260904061555 78 150 0.0 0.0 0.00 0.00 0.00 93 1014.2
20260904060053 78 150 0.0 0.0 0.00 0.00 0.00 92 1014.2
20260904054555 79 150 0.0 0.0 0.00 0.00 0.00 91 1014.1
20260904053050 79 150 0.0 0.0 0.00 0.00 0.00 90 1014.2
20260904051552 79 150 0.0 0.0 0.00 0.00 0.00 91 1014.2
20260904050048 79 150 0.0 0.0 0.00 0.00 0.00 91 1014.2
20260904044545 80 150 0.0 0.0 0.00 0.00 0.00 90 1014.2
20260904043046 80 150 0.0 0.0 0.00 0.00 0.00 89 1014.2
20260904041552 80 150 0.0 0.0 0.00 0.00 0.00 89 1014.2
20260904040043 80 150 0.0 0.0 0.00 0.00 0.00 89 1014.3
20260904034552 80 150 0.0 0.0 0.00 0.00 0.00 88 1014.2
20260904033042 81 150 0.0 0.0 0.00 0.00 0.00 87 1014.4
20260904031545 81 150 0.0 0.0 0.00 0.00 0.00 86 1014.4
20260904030041 81 150 0.0 0.0 0.00 0.00 0.00 85 1014.4
20260904024541 82 150 0.0 0.0 0.00 0.00 0.00 84 1014.5
20260904023040 82 150 0.0 0.0 0.00 0.00 0.00 83 1014.5
20260904021539 83 150 0.0 0.0 0.00 0.00 0.00 82 1014.4
20260904020039 83 150 0.0 0.0 0.00 0.00 0.00 80 1014.2
20260904014540 83 150 0.0 0.0 0.00 0.00 0.00 79 1014.1
20260904013038 84 150 0.0 0.0 0.00 0.00 0.00 79 1014.0
20260904011558 85 150 0.0 0.0 0.00 0.00 0.00 77 1013.9
20260904010041 86 150 0.0 0.0 0.00 0.00 0.00 75 1013.6
20260904004537 87 150 0.0 0.0 0.00 0.00 0.00 74 1013.4
20260904003037 87 150 0.0 1.0 0.00 0.00 0.00 73 1013.4
20260904001536 88 150 0.0 2.0 0.00 0.00 0.00 71 1013.4
20260904000042 89 150 0.0 2.0 0.00 0.00 0.00 71 1013.3